Miscellaneous Local Product
Issued by NWS Hastings, NE

Home | Current Version | Previous Version | Graphics & Text | Print | Product List | Glossary On
Versions: 1 2 3 4 5 6 7 8 9 10 11 12 13 14 15 16 17 18 19 20 21 22 23 24 25 26 27 28 29 30 31 32 33 34 35 36 37 38 39 40 41 42 43 44 45 46 47 48 49 50
645
AXUS43 KGID 260302
MISGRI

GID CWA HOURLY WEATHER ROUNDUP
NATIONAL WEATHER SERVICE HASTINGS NE
900 PM CST SAT FEB 25 2017

NOTE: "FAIR" INDICATES FEW OR NO CLOUDS BELOW 12,000 FEET WITH NO
SIGNIFICANT WEATHER AND/OR OBSTRUCTIONS TO VISIBILITY.

...SOUTH CENTRAL NEBRASKA...

CITY           SKY/WX    TMP DP  RH WIND       PRES   REMARKS
GRAND ISLAND   CLEAR     30  23  75 W9        29.88S WCI  22
HASTINGS       CLEAR     30  22  72 SW6       29.89F WCI  24
KEARNEY        CLEAR     30  19  64 W5        29.88S WCI  25
ORD            CLOUDY    25  18  74 S5        29.83F WCI  19
YORK           PTCLDY    28  27  93 SW7       29.89S WCI  21
AURORA         PTCLDY    28  23  82 SW8       29.88S WCI  19
LEXINGTON      CLOUDY    27  20  73 W6        29.87S WCI  21
HOLDREGE       CLEAR     27  19  72 SW5       29.88S WCI  21
HEBRON         PTCLDY    34  28  77 SW8       29.92S WCI  28

...NEBRASKA PANHANDLE...

CITY           SKY/WX    TMP DP  RH WIND       PRES   REMARKS
CHADRON        CLEAR     16   5  62 W7        29.74S WCI   6
ALLIANCE       CLEAR     16   8  71 W13       29.75S WCI   2
SCOTTSBLUFF    CLEAR     23  10  57 W15       29.77S WCI  10
SIDNEY         CLOUDY    21  12  68 W9        29.80F WCI  11

...WESTERN AND NORTH CENTRAL NEBRASKA...

CITY           SKY/WX    TMP DP  RH WIND       PRES   REMARKS
VALENTINE      CLEAR     15  10  80 SW7       29.77F WCI   5
AINSWORTH      CLEAR     21  18  87 SW9       29.78R WCI  11
ONEILL         CLOUDY    25  19  78 SW9       29.82S WCI  15
BROKEN BOW     CLEAR     16  13  88 W6        29.83F WCI   7
IMPERIAL       CLOUDY    29  18  63 SW5       29.87R WCI  24
NORTH PLATTE   CLOUDY    24  17  74 CALM      29.85S
MCCOOK         CLOUDY    29  13  51 NW7       29.88F WCI  22

...EASTERN NEBRASKA...

CITY           SKY/WX    TMP DP  RH WIND       PRES   REMARKS
NORFOLK        CLOUDY    25  20  81 S12       29.84F WCI  14
SO SIOUX CITY  CLEAR     22  14  71 E7        29.88S WCI  13
TEKAMAH        CLEAR     20  15  81 SW5       29.90F WCI  13
COLUMBUS       MOCLDY    28  21  74 S3        29.87F
ALBION         CLOUDY    28  20  71 CALM      29.85F
OMAHA EPPLEY   PTCLDY    32  21  64 S10       29.92F WCI  24
OFFUTT AFB     PTCLDY    30  20  67 SE7       29.92F WCI  23
MILLARD        CLEAR     32  23  69 SE5       29.92F WCI  28
LINCOLN        PTCLDY    34  24  67 SW9       29.92S WCI  27
NEBRASKA CITY  CLOUDY    33  19  56 S9        29.94F WCI  25
BEATRICE       CLOUDY    37  24  60 SW8       29.93S WCI  30
FALLS CITY     MOCLDY    32  20  61 SE10      29.96F WCI  24

...NORTHERN KANSAS...

CITY           SKY/WX    TMP DP  RH WIND       PRES   REMARKS
GOODLAND       CLOUDY    19   7  59 E6        29.83S WCI  11
HILL CITY      CLEAR     28  12  51 N5        29.89F WCI  23
PHILLIPSBURG   CLEAR     27  18  69 W6        29.91S WCI  20
SMITH CENTER   CLEAR     30  18  59 W3        29.92S
HAYS           PTCLDY    35  15  44 VRB7      29.93R WCI  29
RUSSELL        PTCLDY    30  13  49 S10       29.90S WCI  21
CONCORDIA      MOCLDY    35  15  44 S15       29.92S WCI  25
SALINA         CLEAR     36  15  42 S12       29.96S WCI  28
TOPEKA         PTCLDY    37  12  35 S5        30.02S WCI  33



USA.gov is the U.S. government's official web portal to all federal, state and local government web resources and services.